STARLINK-2147, 47736

Orbit data source: Space-Track

STARLINK-2147, 47736 is a payload satellite owned by SpaceX/Seattle (US) in LEO that was launched on Thu, 04 Mar 2021 UTC via an FALCON 9 launch vehicle from the Air Force Eastern Test Range (AFETR). Payload-class satellites include a variety of spacecraft equipped with specific instruments for various scientific and technological missions. These include communications satellites like Starlink; space stations such as the ISS; scientific satellites like the Hubble; Earth observation satellites from companies like Planet Labs, Umbra, and HawkEye 360; GPS; miniature CubeSats for education and research; and military/defense satellites.

Loading next visibility...
Identifier
47736, 2021-017Q
Orbit
LEO
Country
Flag of USUS
Related business
Manufacturer
SpaceX/Seattle
Mission
Partially operational Commercial Communications
Bus & Motor
STARLINK, Unknown motor
Mass
260 kg wet, ~248 kg dry
Launch date (UTC)
2021-03-04 (5 years ago)
Launch vehicle
FALCON 9
Launch site
Air Force Eastern Test Range (AFETR)
Object type
Payload
Rocket body
Debris
Shape & HBR
Box + 1 Pan, 10.1 m
Radar Cross Section
13.562 m², Large (>1 m²)

Expand to show TLE details & history
Last TLE update: 14 hours ago

TLE from 14 hours ago
0 STARLINK-2147
1 47736U 21017Q   26235.96092996  .00079223  00000-0  61119-3 0  9990
2 47736  53.0697 124.9237 0002115 162.0492 198.0601 15.71278584303784
Epoch: 2026-08-23T23:03Z
TLE epoch observation values (Epoch: 2026-08-23T23:03:44.348Z)
Latitude
0.00002°
Longitude
166.73945°
Altitude
357.502 km
Speed
7.695 km/s
True Right ascension
08h 19m 41s
True Declination
0° 00' 00"
Sunlit
Object was in daylight at epoch
Visualization orbit readout
Latitude
Unknown
Longitude
Unknown
Altitude
Unknown
Speed
Unknown
Apparent Right ascension
Unknown
Apparent Declination
Unknown
Sunlit
N/A
Visualization observer readout
Local Sidereal Time
04:18:51
Azimuth
Unknown
Elevation
Unknown
Doppler factor
Unknown
Orbital elements
Apogee altitude
356.942 km
Perigee altitude
354.093 km
Semi-major axis
6,733.654 km
Eccentricity
0.00021
Inclination
53.0697°
RAAN
124.9237°
Arg. of periapsis
162.0492°
True anomaly
198.05259°
Mean anomaly
198.0601°
Eccentric anomaly
198.05634°
Mean motion
3.92796 °/min
Orbital period
91.65 mins
BSTAR
0.00061119
Loading maneuver chart data...
Computing Atmospheric mass density...

Documentation

Showing up to 5 results
|